FW3241 Weather Reports


time (UTC)temp
F
wind
direction
speed
knots
gust
knots
rain 1hr
in
rain 24hr
in
rain mn
in
humidity
%
barometer
mb
20260504043044 45 34 0.0 0.9 0.00 0.00 0.00 38 1020.4
20260504041542 45 34 0.0 0.0 0.00 0.00 0.00 40 1020.1
20260504040044 46 34 0.0 0.0 0.00 0.00 0.00 38 1020.2
20260504034538 46 34 0.0 0.9 0.00 0.00 0.00 41 1020.2
20260504033049 46 34 0.0 0.0 0.00 0.00 0.00 41 1020.0
20260504031537 47 34 0.0 0.9 0.00 0.00 0.00 39 1020.3
20260504030036 46 34 0.0 0.0 0.00 0.00 0.00 40 1020.3
20260504024545 47 34 0.0 0.0 0.00 0.00 0.00 42 1020.3
20260504023036 47 34 0.0 0.0 0.00 0.00 0.00 42 1020.5
20260504021541 48 34 0.0 0.0 0.00 0.00 0.00 39 1020.5
20260504020034 48 34 0.0 0.0 0.00 0.00 0.00 35 1020.4
20260504014535 48 34 0.0 0.0 0.00 0.00 0.00 37 1020.1
20260504013043 48 34 0.0 0.0 0.00 0.00 0.00 43 1020.1
20260504011534 49 34 0.0 0.0 0.00 0.00 0.00 40 1020.0
20260504010033 49 34 0.0 0.0 0.00 0.00 0.00 39 1020.0
20260504004542 50 34 0.0 0.9 0.00 0.00 0.00 39 1019.8
20260504003032 50 34 0.0 1.7 0.00 0.00 0.00 43 1019.8
20260504001531 51 34 0.0 1.7 0.00 0.00 0.00 43 1019.7
20260504000030 52 33 0.9 2.6 0.00 0.00 0.00 41 1019.7
20260503234530 54 241 0.9 1.7 0.00 0.00 0.00 39 1019.6
20260503233032 56 240 0.0 1.7 0.00 0.00 0.00 37 1019.6
20260503231529 57 240 0.0 1.7 0.00 0.00 0.00 34 1019.6
20260503230028 58 240 0.9 2.6 0.00 0.00 0.00 24 1019.7
20260503224528 58 240 0.9 3.5 0.00 0.00 0.00 25 1019.6
20260503223027 59 241 0.9 3.5 0.00 0.00 0.00 25 1019.7
20260503221525 60 245 0.0 4.3 0.00 0.00 0.00 22 1019.8
20260503220025 59 252 1.7 3.5 0.00 0.00 0.00 25 1019.8
20260503214524 60 244 0.9 3.5 0.00 0.00 0.00 25 1019.9
20260503213028 60 252 0.9 2.6 0.00 0.00 0.00 26 1020.0
20260503211534 60 276 0.9 6.1 0.00 0.00 0.00 23 1020.1
20260503210021 60 238 1.7 3.5 0.00 0.00 0.00 23 1020.1
20260503204521 60 244 2.6 7.0 0.00 0.00 0.00 26 1020.3
20260503203022 61 237 2.6 5.2 0.00 0.00 0.00 24 1020.3
20260503201517 60 237 0.9 6.1 0.00 0.00 0.00 25 1020.4
20260503200017 60 243 0.0 4.3 0.00 0.00 0.00 27 1020.7
20260503194515 60 242 0.0 6.1 0.00 0.00 0.00 23 1020.7
20260503193030 60 252 1.7 3.5 0.00 0.00 0.00 26 1021.0
20260503191514 59 254 0.9 4.3 0.00 0.00 0.00 25 1021.1
20260503190020 58 261 0.0 3.5 0.00 0.00 0.00 31 1021.1
20260503184509 58 255 0.9 2.6 0.00 0.00 0.00 31 1021.3
20260503183006 58 275 1.7 3.5 0.00 0.00 0.00 35 1021.5
20260503181504 56 286 0.0 3.5 0.00 0.00 0.00 36 1021.5
20260503174617 55 292 0.9 2.6 0.00 0.00 0.00 37 1021.6
20260503173057 53 284 1.7 2.6 0.00 0.00 0.00 41 1021.7
20260503171552 52 269 0.9 3.5 0.00 0.00 0.00 42 1021.8
20260503100106 35 193 0.0 0.0 0.00 0.00 0.00 68 1020.3
20260503081547 35 193 0.0 1.7 0.00 0.00 0.00 66 1019.3
20260503071541 36 208 0.0 1.7 0.00 0.00 0.00 65 1018.8
20260503054530 38 208 0.0 0.9 0.00 0.00 0.00 61 1018.7
20260503053021 38 208 0.0 0.9 0.00 0.00 0.00 61 1018.7
20260503051520 38 208 0.0 0.9 0.00 0.00 0.00 60 1018.8
20260503050020 38 208 0.0 0.0 0.00 0.00 0.00 60 1018.7
20260503044518 38 208 0.0 0.9 0.00 0.00 0.00 61 1018.7